Miscellaneous Local Product
Issued by NWS Hastings, NE

Home | Current Version | Previous Version | Graphics & Text | Print | Product List | Glossary On
Versions: 1 2 3 4 5 6 7 8 9 10 11 12 13 14 15 16 17 18 19 20 21 22 23 24 25 26 27 28 29 30 31 32 33 34 35 36 37 38 39 40 41 42 43 44 45 46 47 48 49 50
000
AXUS43 KGID 271002
MISGRI

GID CWA HOURLY WEATHER ROUNDUP
NATIONAL WEATHER SERVICE HASTINGS NE
500 AM CDT MON MAR 27 2017

NOTE: "FAIR" INDICATES FEW OR NO CLOUDS BELOW 12,000 FEET WITH NO
SIGNIFICANT WEATHER AND/OR OBSTRUCTIONS TO VISIBILITY.

...SOUTH CENTRAL NEBRASKA...

CITY           SKY/WX    TMP DP  RH WIND       PRES   REMARKS
GRAND ISLAND   CLOUDY    43  43 100 NE9       29.93S
HASTINGS       CLOUDY    44  43  96 NE8       29.93R
KEARNEY        MOCLDY    43  39  87 NW5       29.94R
ORD            CLOUDY    44  40  85 CALM      29.93R
YORK           CLOUDY    43  43 100 NE7       29.93S
AURORA         CLOUDY    42  42 100 N7        29.92F
LEXINGTON      FOG       34  33  95 NW3       29.93R VSB 1/2
HOLDREGE       FOG       40  39  97 N3        29.94R VSB 1/4
HEBRON         CLOUDY    44  43  96 NE7       29.92F FOG

...NEBRASKA PANHANDLE...

CITY           SKY/WX    TMP DP  RH WIND       PRES   REMARKS
CHADRON        FOG       31  30  96 CALM      29.91S VSB 1/2
ALLIANCE       CLEAR     25  23  92 W5        29.90F WCI  19
SCOTTSBLUFF    CLEAR     27  24  89 CALM      29.92F
SIDNEY         CLEAR     28  26  92 W7        29.93S WCI  21

...WESTERN AND NORTH CENTRAL NEBRASKA...

CITY           SKY/WX    TMP DP  RH WIND       PRES   REMARKS
VALENTINE      CLOUDY    30  28  92 W5        29.92S WCI  25
AINSWORTH      FOG       30  30 100 CALM      29.92S VSB 1/4
ONEILL         CLOUDY    42  39  91 CALM      29.94S
BROKEN BOW     HAZE      41  32  70 CALM      29.92S VSB 1/2
IMPERIAL       CLEAR     36  32  85 NW8       29.91S WCI  30
NORTH PLATTE   FOG       35  33  92 SE3       29.91S VSB 1/4
MCCOOK         CLEAR     34  33  96 CALM      29.92F

...EASTERN NEBRASKA...

CITY           SKY/WX    TMP DP  RH WIND       PRES   REMARKS
NORFOLK        CLOUDY    42  40  92 CALM      29.92F
SO SIOUX CITY  CLOUDY    43  40  89 CALM      29.95S
TEKAMAH        CLOUDY    44  40  85 N5        29.96R
COLUMBUS       CLOUDY    43  39  87 NE3       29.94F
ALBION         CLOUDY    44  41  88 N5        29.94R
OMAHA EPPLEY   LGT RAIN  46  41  82 N7        29.93S
OFFUTT AFB     CLOUDY    46  42  85 N3        29.93R
MILLARD        DRIZZLE   47  44  90 N6        29.94F
LINCOLN        CLOUDY    45  42  89 N8        29.96R
NEBRASKA CITY  CLOUDY    45  43  95 N7        29.91S
BEATRICE       LGT RAIN  45  44  97 N6        29.92S
FALLS CITY     CLOUDY    47  44  90 N8        29.90R

...NORTHERN KANSAS...

CITY           SKY/WX    TMP DP  RH WIND       PRES   REMARKS
GOODLAND       CLEAR     34  33  96 W8        29.92S WCI  27
HILL CITY      MOCLDY    36  36 100 CALM      29.95R FOG
NORTON         SUNNY     36  34  93 W3        29.93
PHILLIPSBURG   CLOUDY    41  41 100 NW7       29.95R FOG
HAYS             N/A     46  44  93 NW7       29.94R
RUSSELL        CLOUDY    46  44  93 N7        29.91S
CONCORDIA      CLOUDY    45  44  97 NE9       29.90F
SALINA         CLOUDY    48  46  93 N14       29.90S FOG
TOPEKA         RAIN      46  46 100 NW7       29.87R FOG



USA.gov is the U.S. government's official web portal to all federal, state and local government web resources and services.